Location: Galgern
(46.1862°N, 7.8935°E)
Time: 11:03:20
(UTC+00:00)

Daily predictions for brighter satellites

Satellite Brightness Start Highest point End
(mag) Time Altitude Azimuth Time Altitude Azimuth Time Altitude Azimuth
SJ-6B 3.9 19:38:57 10° S 19:42:31 43° W 19:46:06 10° NNW
Cosmos 2098 Rocket 4.3 19:42:15 10° ESE 19:43:39 13° E 19:45:07 10° NE
Cosmos 405 Rocket 3.4 19:40:12 10° SSW 19:44:03 63° WNW 19:48:00 10° N
Resurs 01 Rocket 1.8 19:40:03 10° SSE 19:44:23 58° ENE 19:48:46 10° N
Cosmos 1437 Rocket 2.8 19:42:49 10° NNW 19:46:39 79° WSW 19:50:31 10° S
In-Cosmos 22 Rocket 4.4 19:42:27 10° SSW 19:47:44 75° WNW 19:53:07 10° N
SL-16 R/B 4.3 19:47:10 10° N 19:50:16 15° NE 19:53:23 10° ENE
OBJECT-B 3.0 19:47:40 10° SSW 19:50:22 25° W 19:53:06 10° NW
SPOT 1/Viking Rocket 4.1 19:46:39 10° SE 19:51:32 44° ENE 19:56:28 10° N
BREEZE-M DEB (TANK) 3.9 19:37:50 10° WSW 19:52:24 77° NNW 19:56:14 10° ENE
Cosmos-2242 4.4 19:48:23 10° NNW 19:52:25 40° W 19:56:24 10° SSW
Cosmos 1825 Rocket 4.4 19:50:10 10° SSW 19:54:25 54° WNW 19:58:40 10° N
RESURS DK-1 3.6 19:57:10 10° SSE 20:00:26 23° ESE 20:03:42 10° NE
BREEZE-M DEB (TANK) 2.4 19:58:17 10° WNW 20:00:56 64° NNE 20:06:55 10° E
Cosmos 1408 4.0 19:58:05 10° SSW 20:01:33 42° WNW 20:05:02 10° N
Cosmos 44 Rocket 3.8 19:56:52 10° S 20:01:44 43° ESE 20:06:40 10° NE
Ariane Rocket 3.5 19:59:17 10° S 20:04:18 62° WSW 20:09:21 10° NNW
SPOT 5 3.9 20:07:14 11° ESE 20:10:31 26° ENE 20:14:07 10° N
Cosmos 1437 2.6 20:08:17 10° NNW 20:11:02 67° W 20:13:47 10° S
Cosmos 1818 4.4 20:06:03 10° SW 20:11:25 56° NW 20:16:50 10° NNE
ARIANE 5 R/B 3.6 20:08:22 12° SE 20:12:00 34° ENE 20:16:02 10° N
CZ-2C R/B 3.9 20:10:56 10° NNE 20:15:24 49° E 20:19:45 10° S
Cosmos 1633 3.0 20:13:09 10° SSE 20:16:29 41° E 20:19:55 10° NNE
Cosmos 1697 Rocket 2.8 20:11:28 10° NNW 20:17:10 85° WSW 20:22:30 12° SSE
ERS-2 3.2 20:16:48 10° N 20:20:20 47° WNW 20:23:50 10° SW
ISS -2.2 20:18:46 10° WNW 20:21:54 33° N 20:25:00 10° ENE
Cosmos 2278 4.1 20:18:49 10° NNW 20:24:21 51° ENE 20:28:45 16° SE
Cosmos 2221 2.6 20:20:07 10° N 20:24:25 80° W 20:28:43 10° S
Cosmos 2082 Rocket 2.3 20:19:29 10° S 20:24:55 54° ESE 20:30:26 10° NE
CARTOSAT-1 3.8 20:23:15 15° SE 20:26:37 53° ENE 20:30:51 10° N
Cosmos 371 Rocket 3.9 20:22:32 10° N 20:27:07 42° ENE 20:30:30 17° SE
Cosmos 1833 Rocket 2.9 20:23:35 10° SSW 20:29:13 74° WNW 20:34:53 10° NNE
Cosmos 2279 Rocket 4.5 20:25:14 10° NNW 20:31:19 60° W 20:37:22 10° S
Terra 2.8 20:29:10 16° ESE 20:32:17 32° ENE 20:36:31 10° N
SPOT 3 Rocket 3.9 20:27:22 10° S 20:32:33 64° WSW 20:37:45 10° NNW
Gbstr 26 Del rocket 4.1 20:29:53 10° WNW 20:33:23 36° N 20:37:08 10° ENE
Cosmos 1242 Rocket 4.2 20:30:26 10° NNW 20:33:40 31° W 20:36:51 10° SSW
BREEZE-M DEB (TANK) 3.5 20:30:46 10° SW 20:34:22 58° SE 20:46:42 10° ENE
Cosmos 1092 Rocket 4.4 20:30:54 14° SSE 20:35:56 44° E 20:41:52 10° NNE
NOSS 3-4 (A) 4.1 20:32:39 10° WSW 20:38:24 57° NW 20:44:38 10° NE
NOSS 3-4 (C) 4.1 20:32:45 10° WSW 20:38:30 57° NW 20:44:44 10° NE
Cosmos 773 Rocket 3.9 20:33:52 10° SSW 20:39:06 86° ESE 20:44:19 10° NNE
Cosmos 2360 Rocket 4.3 20:37:41 10° N 20:41:04 16° NE 20:44:27 10° ENE
USA 276 3.4 20:38:09 10° WNW 20:41:09 39° N 20:44:09 10° ENE
ATLAS 2AS CENTAUR R/B 3.1 20:39:21 10° SW 20:47:18 87° NW 20:55:04 10° NE
Cosmos 1606 3.2 20:44:34 10° NNW 20:48:17 56° W 20:51:15 15° S
Cosmos 2369 4.0 20:45:44 10° NNW 20:51:19 65° WSW 20:55:33 18° S
COSMOS 2406 3.9 20:45:47 10° SW 20:51:21 56° WNW 20:56:59 10° NNE
Meteor 2-3 Rocket 4.0 20:47:27 18° SSE 20:51:28 49° E 20:56:56 10° NNE
ERBS 2.2 20:50:25 10° NW 20:53:37 68° SW 20:54:49 34° SSE
Cosmos 2026 Rocket 4.3 20:51:04 18° SSE 20:55:32 50° E 21:01:36 10° NNE
Cosmos 1782 3.6 20:55:42 10° N 20:59:27 36° ENE 21:00:54 27° ESE
Cosmos 2151 2.9 20:57:41 20° S 21:00:34 76° E 21:04:50 10° NNE
Nadezhda 4 Rocket 4.1 20:55:45 10° SSW 21:01:53 75° W 21:08:07 10° N
Cosmos 332 Rocket 4.2 20:57:36 10° NNW 21:02:23 53° ENE 21:04:54 26° SE
USA 267 3.3 20:56:04 10° ENE 21:02:29 55° SE 21:08:52 10° SSW
GP-B 3.1 20:58:09 10° N 21:02:37 69° E 21:05:05 26° S
Cosmos 1980 Rocket 2.3 20:57:33 10° NNW 21:03:10 71° WSW 21:06:48 22° SSE
ERS-1 Rocket 2.9 21:00:53 23° SSE 21:04:06 87° ENE 21:09:09 10° NNW
Spot 2 Rocket 3.8 21:00:59 18° S 21:04:48 66° WSW 21:09:55 10° NNW
ATLAS 3B R/B 2.8 20:59:04 10° NW 21:06:12 86° NE 21:11:03 24° SE
Cosmos 2322 Rocket 3.3 21:05:20 10° NNW 21:10:28 34° NE 21:13:48 19° ESE
Cosmos 1151 Rocket 3.5 21:11:41 10° N 21:15:52 45° ENE 21:17:20 32° SE
Meteor 2-19 Rocket 4.4 21:10:39 13° S 21:16:11 84° W 21:22:17 10° N
CZ-4B DEB 4.4 21:17:39 49° ESE 21:18:09 57° ENE 21:21:17 10° N
Cosmos 1538 Rocket 4.0 21:13:17 10° SSW 21:18:31 86° WNW 21:23:45 10° NNE
BREEZE-M DEB (TANK) 2.7 21:16:49 10° W 21:19:00 42° N 21:19:23 35° NNE
Resurs 01 Rocket 4.2 21:18:34 10° SW 21:21:15 16° W 21:23:57 10° NW
Okean 3 Rocket 4.0 21:20:47 34° SE 21:22:04 44° E 21:26:20 10° NNE
Cosmos 158 Rocket 3.9 21:19:19 19° SSW 21:23:00 77° ESE 21:28:16 10° NNE
Cosmos 2098 Rocket 4.4 21:21:54 10° SW 21:24:22 24° WNW 21:27:03 10° NNW
Cosmos 1428 Rocket 4.4 21:23:34 20° S 21:27:57 87° E 21:34:07 10° N
Cosmos 1553 Rocket 4.1 21:26:01 10° N 21:32:03 60° ENE 21:34:51 32° SE
H-2A R/B 3.5 21:28:48 10° NNE 21:32:58 62° ESE 21:34:07 43° SSE
SL-16 R/B 2.4 21:29:55 10° NNW 21:35:35 64° ENE 21:38:08 33° SE
USA 234 3.5 21:31:41 18° ESE 21:36:40 67° NNE 21:43:11 10° NW
RESURS DK-1 3.8 21:34:21 10° SW 21:38:14 38° NW 21:42:09 10° NNE
Cosmos 2219 Rocket 4.3 21:34:44 10° N 21:38:24 17° NE 21:42:03 10° E
Cosmos 1271 Rocket 3.1 21:37:34 10° NNW 21:41:28 59° W 21:42:41 39° SSW
ARIANE 5 R/B 4.3 21:45:54 17° SW 21:48:28 27° W 21:52:19 10° NW
SPOT 5 3.9 21:46:27 22° SW 21:48:30 33° W 21:52:27 10° NNW
Cosmos 304 Rocket 4.0 21:46:38 10° NNW 21:51:22 60° WSW 21:52:54 39° SSW
Cosmos 1408 Rocket 3.7 21:57:11 51° ESE 21:57:43 55° E 22:02:00 10° NNE
Cosmos 1417 Rocket 4.5 21:52:06 10° N 21:58:29 79° E 22:01:06 38° SSE
ISS -3.7 21:55:37 10° WNW 21:58:48 78° NW 21:58:48 78° NW
S3M 4.1 21:52:56 10° N 21:59:17 66° ENE 22:01:50 37° SSE
Cosmos 923 Rocket 4.1 22:02:24 28° SSW 22:05:20 77° WNW 22:10:43 10° NNE
COBE Rocket 3.9 22:06:55 49° SE 22:07:54 62° ENE 22:12:30 10° N
Meteor 2-14 Rocket 4.4 22:05:49 33° S 22:08:45 86° W 22:14:57 10° N
Cosmos 2082 Rocket 4.1 22:04:29 10° WSW 22:09:20 29° NW 22:14:13 10° N
Terra 3.1 22:08:03 23° SW 22:10:00 32° W 22:14:16 10° NNW
Cosmos 220 Rocket 3.8 22:09:11 10° NNW 22:13:31 84° ENE 22:14:04 67° SE
USA 276 3.0 22:14:31 10° WNW 22:17:00 48° NW 22:17:00 48° NW
Cosmos 2056 Rocket 3.5 22:12:33 10° NNW 22:17:59 79° ENE 22:19:23 50° SE
Cosmos 1515 Rocket 3.4 22:13:59 10° N 22:18:29 88° E 22:19:04 67° SSE
Cosmos 2333 Rocket 3.4 22:13:51 10° NNW 22:19:00 35° NE 22:21:43 23° E
ATLAS 5 CENTAUR R/B 4.3 22:15:32 10° NNW 22:19:30 21° NNE 22:23:59 10° ENE
Gbstr 26 Del rocket 2.7 22:16:35 10° WNW 22:20:28 87° NNE 22:20:51 73° ESE
Cosmos 1862 3.6 22:25:14 55° WSW 22:25:44 61° W 22:29:42 10° N
Cosmos 2360 Rocket 2.2 22:20:28 10° NNW 22:26:08 72° ENE 22:27:48 46° SE
IRIDIUM 114 4.4 22:21:27 10° N 22:26:39 63° E 22:27:42 51° SE
ALOS 2 3.1 22:26:42 44° E 22:27:15 47° ENE 22:31:29 10° N
Cosmos 1812 3.7 22:30:27 10° NNW 22:34:00 36° W 22:34:14 35° W
IRIDIUM 103 4.3 22:30:35 10° N 22:35:49 76° E 22:36:51 57° SSE
Cosmos 1371 Rocket 4.2 22:33:33 10° NNW 22:38:52 64° WSW 22:39:57 52° SSW
Cosmos 2112 Rocket 4.4 22:37:57 33° SW 22:40:16 61° WNW 22:45:31 10° NNE
Cosmos 1680 Rocket 4.2 22:39:43 26° SW 22:42:28 50° WNW 22:47:36 10° NNE
SL-27 R/B 3.0 22:43:09 57° NNE 22:43:09 57° NNE 22:46:06 10° NNE
USA 267 3.8 22:39:09 10° NE 22:45:32 59° NNW 22:51:56 10° WSW
Cosmos 2084 3.7 22:51:07 56° ENE 22:51:07 56° ENE 22:54:34 10° NE
COSMOS 2487 4.5 22:52:30 20° ENE 22:52:30 20° ENE 22:53:55 10° NE
Cosmos 2237 Rocket 4.4 22:48:23 10° N 22:52:27 20° NE 22:56:31 10° E
IRIDIUM 106 4.3 22:48:54 10° N 22:54:08 76° W 22:55:07 58° SSW
Cosmos 2322 Rocket 2.8 22:49:19 10° NW 22:54:37 42° WSW 22:55:35 39° SW
ATLAS 3B R/B 4.2 22:50:51 10° WNW 22:56:11 23° WSW 22:58:17 20° SW
Cosmos 2285 Rocket 4.3 22:50:24 10° NNW 22:56:40 61° ENE 22:58:54 39° SE
Cosmos 2315 Rocket 4.0 22:54:54 10° N 23:01:14 80° W 23:03:02 50° S
NOSS 2-1 (C) 3.9 23:02:14 43° NNE 23:02:14 43° NNE 23:04:44 10° NE
Cosmos 1805 Rocket 3.4 23:02:35 82° ESE 23:02:39 82° E 23:07:07 10° N
NOSS 2-1 (D) 3.9 23:09:40 44° N 23:09:40 44° N 23:12:23 10° NNE
Meteor 1-27 Rocket 4.0 23:08:42 10° NNW 23:14:09 54° W 23:15:18 46° SW
Cosmos 1500 Rocket 4.3 23:14:13 40° W 23:14:46 42° WNW 23:18:59 10° N
COSMOS 2428 3.0 23:10:57 10° NNW 23:16:37 61° ENE 23:18:24 42° ESE
Cosmos 2333 4.1 23:11:10 10° NNW 23:16:48 82° WSW 23:17:46 62° S
PSLV R/B 4.5 23:12:32 10° NNE 23:17:02 40° E 23:17:07 40° E
Cosmos 1500 4.4 23:19:16 34° ENE 23:19:16 34° ENE 23:22:10 10° NNE
SL-16 R/B 3.7 23:15:00 10° NW 23:19:09 21° W 23:19:59 21° WSW
USA 234 3.6 23:19:01 43° SSW 23:19:52 45° SW 23:26:07 10° WNW
Cosmos 1602 4.1 23:21:42 62° NNE 23:21:42 62° NNE 23:25:01 10° NNE
Cosmos 292 Rocket 4.3 23:18:28 10° NNW 23:23:00 45° WSW 23:23:00 45° WSW
Cosmos 2219 Rocket 2.1 23:17:39 10° NNW 23:23:17 81° ENE 23:24:30 56° SE
Cosmos 1048 Rocket 3.9 23:23:23 64° SE 23:23:45 67° ESE 23:28:51 10° NNE
Cosmos 2228 Rocket 3.8 23:26:02 10° NNW 23:30:09 40° W 23:30:09 40° W
SL-08 ROCKET BODY 4.4 23:29:43 54° SSE 23:31:05 74° E 23:37:11 10° NNE
Thor Agena Rocket 3.4 23:27:28 10° NNE 23:32:31 66° ESE 23:32:59 62° SE
Cosmos 494 Rocket 3.9 23:33:22 61° SE 23:33:41 63° ESE 23:38:45 10° NNE
Cosmos 489 Rocket 4.4 23:34:51 53° S 23:36:25 79° ESE 23:42:47 10° NNE
COSMOS 2455 2.7 23:35:08 56° SSW 23:36:31 83° ESE 23:42:34 10° NE
Nimbus 7 Rocket 4.5 23:32:27 10° NNE 23:38:31 75° WNW 23:40:14 48° SW
NOSS 0 Rocket 4.4 23:33:43 10° NNW 23:39:53 57° ENE 23:42:50 31° ESE
Cosmos 1470 Rocket 4.2 23:40:37 43° E 23:40:37 43° E 23:44:37 10° NNE
Cosmos 1340 Rocket 4.5 23:45:19 23° E 23:45:19 23° E 23:48:08 10° NE
Cosmos 1745 Rocket 4.1 23:46:52 47° SSE 23:48:28 63° E 23:54:39 10° NNE
Cosmos 1666 Rocket 3.5 23:49:24 72° W 23:49:25 72° W 23:53:52 10° N
Cosmos 1633 Rocket 2.9 23:49:55 86° WNW 23:49:55 86° WNW 23:54:17 10° N
Cosmos 1452 Rocket 3.8 23:45:49 10° NNW 23:50:52 49° WSW 23:51:08 49° WSW
Okean 1-7 4.3 23:49:07 10° N 23:52:54 30° ENE 23:53:38 28° E
Meteor 1-18 Rocket 4.2 23:47:04 10° NNW 23:53:00 81° W 23:54:13 58° S
Sich 1 4.0 23:54:53 36° W 23:55:13 37° WNW 23:59:17 10° N
